Orangeburg, SC

1:01 PM EST on November 20, 2017 (GMT -0500)
Orangeburg Municipal

Weather History for KOGB - April, 2013

Change the Weather History Date:

Wednesday, April 10, 2013

  Actual Average Record
Temperature  
Mean Temperature 71 °F 62 °F  
Max Temperature 84 °F 75 °F 90 °F (2001)
Min Temperature 57 °F 49 °F 31 °F (1972)
Degree Days  
Heating Degree Days 0 5  
Month to date heating degree days 52 52  
Since 1 July heating degree days 2119 2261  
Cooling Degree Days 6 2  
Month to date cooling degree days 15 15  
Year to date cooling degree days 41 35  
Growing Degree Days 20 (Base 50)    
Moisture  
Dew Point 59 °F    
Average Humidity 81    
Maximum Humidity 100    
Minimum Humidity 39    
Precipitation  
Precipitation 0.00 in 0.10 in 1.42 in (1989)
Month to date precipitation 0.75 1.09  
Year to date precipitation 11.97 12.64  
Sea Level Pressure  
Sea Level Pressure 30.11 in    
Wind  
Wind Speed 5 mph (South)    
Max Wind Speed 16 mph    
Max Gust Speed 21 mph    
Visibility 6 miles    
Events Fog    
T = Trace of Precipitation, MM = Missing Value Source: NWS Daily Summary

Daily Weather History Graph

Daily Weather History Graph

Search for Another Location

Airport or City:

Trip Planner

Search our weather history database for the weather conditions in past years. The results will help you decide how hot, cold, wet, or windy it might be!

Date:

Astronomy

Apr. 10, 2013 Rise Set
Actual Time 6:59 AM EDT 7:50 PM EDT
Civil Twilight 6:33 AM EDT 8:16 PM EDT
Nautical Twilight 6:03 AM EDT 8:46 PM EDT
Astronomical Twilight 5:33 AM EDT 9:16 PM EDT
Moon 6:55 AM EDT (4/10) 8:21 PM EDT (4/10)
Length of Visible Light 13h 42m
Length of Day
12h 51m
New Moon, 0% of the Moon is Illuminated
Apr 10
New Moon
Apr 18
First Quarter
Apr 25
Full
May 2
Last Quarter
May 9
New

Hourly Weather History & Observations

Time (EDT) Temp. Heat Index Dew Point Humidity Pressure Visibility Wind Dir Wind Speed Gust Speed Precip Events Conditions
12:53 AM 66.0 °F - 61.0 °F 84% 30.13 in 10.0 mi South 5.8 mph - N/A   Clear
1:53 AM 64.9 °F - 61.0 °F 87% 30.13 in 10.0 mi SSW 3.5 mph - N/A   Clear
2:53 AM 63.0 °F - 61.0 °F 93% 30.12 in 10.0 mi SSW 4.6 mph - N/A   Clear
3:53 AM 62.1 °F - 60.1 °F 93% 30.12 in 6.0 mi Calm Calm - N/A   Clear
4:06 AM 60.8 °F - 60.8 °F 100% 30.12 in 1.5 mi Calm Calm - N/A   Clear
4:17 AM 60.8 °F - 59.0 °F 94% 30.12 in 0.5 mi Calm Calm - N/A Fog Fog
4:23 AM 60.8 °F - 59.0 °F 94% 30.12 in 1.2 mi Calm Calm - N/A   Partly Cloudy
4:25 AM 60.8 °F - 59.0 °F 94% 30.12 in 3.0 mi Calm Calm - N/A   Partly Cloudy
4:41 AM 59.0 °F - 57.2 °F 94% 30.13 in 1.8 mi Calm Calm - N/A   Clear
4:48 AM 60.8 °F - 57.2 °F 88% 30.13 in 1.0 mi Calm Calm - N/A   Clear
4:53 AM 60.1 °F - 59.0 °F 96% 30.12 in 1.5 mi Calm Calm - N/A   Clear
4:59 AM 60.8 °F - 59.0 °F 94% 30.12 in 0.8 mi Calm Calm - N/A   Mist
5:40 AM 57.2 °F - 57.2 °F 100% 30.12 in 1.0 mi Calm Calm - N/A   Clear
5:49 AM 59.0 °F - 57.2 °F 94% 30.12 in 2.0 mi Calm Calm - N/A   Partly Cloudy
5:53 AM 59.0 °F - 57.9 °F 96% 30.12 in 1.5 mi Calm Calm - N/A   Partly Cloudy
6:04 AM 59.0 °F - 57.2 °F 94% 30.13 in 2.0 mi Calm Calm - N/A   Partly Cloudy
6:08 AM 59.0 °F - 57.2 °F 94% 30.13 in 1.5 mi Calm Calm - N/A   Clear
6:11 AM 57.2 °F - 57.2 °F 100% 30.13 in 1.0 mi Calm Calm - N/A   Mist
6:19 AM 59.0 °F - 57.2 °F 94% 30.13 in 0.8 mi Calm Calm - N/A   Mist
6:53 AM 59.0 °F - 57.9 °F 96% 30.14 in 0.5 mi Calm Calm - N/A Fog Fog
7:29 AM 57.2 °F - 57.2 °F 100% 30.15 in 0.2 mi Calm Calm - N/A Fog Fog
7:53 AM 59.0 °F - 57.9 °F 96% 30.15 in 0.5 mi Calm Calm - N/A Fog Fog
7:59 AM 60.8 °F - 59.0 °F 94% 30.16 in 2.0 mi Calm Calm - N/A   Partly Cloudy
8:07 AM 60.8 °F - 60.8 °F 100% 30.15 in 5.0 mi Calm Calm - N/A   Partly Cloudy
8:53 AM 63.0 °F - 62.1 °F 97% 30.16 in 10.0 mi Calm Calm - N/A   Clear
9:53 AM 71.1 °F - 61.0 °F 70% 30.17 in 10.0 mi SW 11.5 mph - N/A   Clear
10:53 AM 73.9 °F - 61.0 °F 64% 30.17 in 10.0 mi SW 9.2 mph - N/A   Partly Cloudy
11:53 AM 75.9 °F - 60.1 °F 58% 30.16 in 10.0 mi Variable 6.9 mph - N/A   Clear
1:53 PM 80.1 °F 80.9 °F 60.1 °F 50% 30.11 in 10.0 mi SW 8.1 mph - N/A   Scattered Clouds
2:53 PM 82.0 °F 82.1 °F 59.0 °F 45% 30.09 in 10.0 mi SSE 6.9 mph - N/A   Clear
3:53 PM 82.9 °F 82.6 °F 57.9 °F 42% 30.06 in 10.0 mi South 9.2 mph - N/A   Clear
4:53 PM 84.0 °F 83.3 °F 57.0 °F 40% 30.04 in 10.0 mi South 4.6 mph - N/A   Clear
5:53 PM 82.9 °F 82.0 °F 55.0 °F 38% 30.02 in 10.0 mi SSE 8.1 mph - N/A   Clear
6:53 PM 81.0 °F 80.5 °F 54.0 °F 39% 30.02 in 10.0 mi South 6.9 mph - N/A   Clear
7:53 PM 75.9 °F - 54.0 °F 46% 30.02 in 10.0 mi SSE 4.6 mph - N/A   Clear
8:53 PM 72.0 °F - 55.9 °F 57% 30.03 in 10.0 mi South 8.1 mph - N/A   Clear
9:53 PM 69.1 °F - 60.1 °F 73% 30.03 in 10.0 mi South 6.9 mph - N/A   Clear
10:53 PM 68.0 °F - 61.0 °F 78% 30.02 in 10.0 mi South 5.8 mph - N/A   Clear
11:53 PM 66.0 °F - 62.1 °F 87% 30.01 in 10.0 mi South 5.8 mph - N/A   Clear